KZR887 UAAA-UTTT

Flight info

Callsign KZR887
Flight time N/A
Altitude 36000
Route TIPSA L143 TISIB TISIB1W
Aircraft A21N/M-SDE2E3FGHIRWXY/LB1

Departure

Time 2026-05-08 12:30
Airport Almaty International Airport (UAAA)

Arrival

Time N/A
Airport UTTT
Time Latitude Longitude Altitude Speed Heading
2026-05-08 12:29 43.43149 76.96118 7896 ft 281 kts 279°
2026-05-08 12:30 43.43492 76.93458 8649 ft 283 kts 280°
2026-05-08 12:30 43.43868 76.90785 9452 ft 286 kts 281°
2026-05-08 12:30 43.44263 76.88097 10236 ft 290 kts 281°
2026-05-08 12:30 43.44684 76.85277 10488 ft 312 kts 282°
2026-05-08 12:31 43.45137 76.82264 10771 ft 329 kts 282°
2026-05-08 12:31 43.45608 76.79143 11397 ft 336 kts 282°
2026-05-08 12:31 43.46081 76.75983 12076 ft 339 kts 282°
2026-05-08 12:31 43.46553 76.72788 12782 ft 342 kts 282°
2026-05-08 12:32 43.47029 76.69556 13463 ft 346 kts 282°
2026-05-08 12:32 43.47508 76.66298 14134 ft 349 kts 282°
2026-05-08 12:32 43.47988 76.63008 14738 ft 352 kts 282°
2026-05-08 12:32 43.48472 76.59694 15342 ft 355 kts 282°
2026-05-08 12:33 43.48967 76.56306 15959 ft 358 kts 282°
2026-05-08 12:33 43.49456 76.52974 16602 ft 361 kts 282°
2026-05-08 12:33 43.49961 76.49536 17218 ft 364 kts 282°
2026-05-08 12:33 43.50462 76.46108 17805 ft 367 kts 282°
2026-05-08 12:34 43.50965 76.42647 18364 ft 370 kts 282°
2026-05-08 12:34 43.51469 76.39167 18859 ft 372 kts 282°
2026-05-08 12:34 43.51974 76.35655 19365 ft 375 kts 282°
2026-05-08 12:34 43.52482 76.32123 19880 ft 377 kts 282°
2026-05-08 12:35 43.52994 76.28564 20390 ft 379 kts 282°
2026-05-08 12:35 43.53509 76.24995 20891 ft 381 kts 282°
2026-05-08 12:35 43.54026 76.21394 21372 ft 384 kts 281°
2026-05-08 12:35 43.54545 76.17777 21848 ft 386 kts 281°
2026-05-08 12:36 43.55064 76.14136 22337 ft 388 kts 281°
2026-05-08 12:36 43.55582 76.10479 22814 ft 390 kts 281°
2026-05-08 12:36 43.56102 76.06797 23280 ft 393 kts 281°
2026-05-08 12:36 43.56626 76.03091 23708 ft 395 kts 281°